GW4049 Weather Reports


time (UTC)temp
F
wind
direction
speed
knots
gust
knots
rain 1hr
in
rain 24hr
in
rain mn
in
humidity
%
barometer
mb
20260509011427 47 238 0.9 1.7 0.00 0.00 0.00 69 1023.1
20260509010925 47 253 1.7 5.2 0.00 0.00 0.00 68 1023.3
20260509010422 47 142 2.6 2.6 0.00 0.00 0.00 67 1023.2
20260509005919 48 209 1.7 2.6 0.00 0.00 0.00 66 1023.5
20260509005417 47 228 0.0 2.6 0.00 0.00 0.00 67 1023.3
20260509004917 47 211 1.7 5.2 0.00 0.00 0.00 67 1022.9
20260509004414 47 167 1.7 3.5 0.00 0.00 0.00 66 1023.2
20260509003912 47 218 1.7 3.5 0.00 0.00 0.00 68 1023.1
20260509003409 48 249 0.9 0.9 0.00 0.00 0.00 66 1023.2
20260509002906 48 191 1.7 2.6 0.00 0.00 0.00 66 1023.2
20260509002404 48 254 0.0 0.9 0.00 0.00 0.00 65 1023.1
20260509001901 49 88 1.7 3.5 0.00 0.00 0.00 65 1023.1
20260509001356 48 295 0.9 2.6 0.00 0.00 0.00 64 1023.3
20260509000854 48 187 2.6 2.6 0.00 0.00 0.00 65 1023.3
20260509000352 48 176 2.6 2.6 0.00 0.00 0.00 65 1023.3
20260508235848 49 242 1.7 2.6 0.00 0.00 0.00 65 1023.5
20260508235345 49 320 0.9 1.7 0.00 0.00 0.00 63 1023.5
20260508234842 49 16 0.0 1.7 0.00 0.00 0.00 64 1023.2
20260508234338 50 312 0.9 1.7 0.00 0.00 0.00 62 1023.3
20260508233837 50 45 3.5 5.2 0.00 0.00 0.00 61 1023.2
20260508233336 51 24 1.7 2.6 0.00 0.00 0.00 61 1022.9
20260508232832 52 262 1.7 2.6 0.00 0.00 0.00 59 1023.2
20260508232329 51 235 0.9 3.5 0.00 0.00 0.00 61 1023.3
20260508231827 51 76 0.0 6.1 0.00 0.00 0.00 61 1023.1
20260508231323 51 138 1.7 5.2 0.00 0.00 0.00 59 1022.9
20260508230820 51 341 0.9 5.2 0.00 0.00 0.00 58 1022.9
20260508230316 50 148 4.3 6.1 0.00 0.00 0.00 59 1023.2
20260508225814 51 29 2.6 6.1 0.00 0.00 0.00 60 1023.3
20260508225310 51 323 0.0 1.7 0.00 0.00 0.00 59 1023.2
20260508224809 51 344 4.3 7.0 0.00 0.00 0.00 59 1023.1
20260508224306 50 233 3.5 7.0 0.00 0.00 0.00 59 1023.1
20260508223803 52 179 2.6 5.2 0.00 0.00 0.00 57 1022.9
20260508223300 52 95 2.6 6.1 0.00 0.00 0.00 57 1023.2
20260508222758 51 242 0.0 3.5 0.00 0.00 0.00 58 1023.1
20260508222255 51 38 1.7 6.1 0.00 0.00 0.00 59 1023.5
20260508221752 52 242 0.9 5.2 0.00 0.00 0.00 57 1023.1
20260508221247 53 112 3.5 6.1 0.00 0.00 0.00 54 1023.1
20260508220743 51 18 1.7 3.5 0.00 0.00 0.00 59 1023.1
20260508220240 51 146 3.5 8.7 0.00 0.00 0.00 59 1023.1
20260508215736 51 88 5.2 7.8 0.00 0.00 0.00 58 1023.2
20260508215233 51 311 2.6 6.1 0.00 0.00 0.00 59 1023.2
20260508214730 51 60 2.6 2.6 0.00 0.00 0.00 58 1023.1
20260508214227 50 272 3.5 3.5 0.00 0.00 0.00 60 1023.3
20260508213723 50 19 4.3 6.1 0.00 0.00 0.00 61 1023.3
20260508213220 50 158 0.9 2.6 0.00 0.00 0.00 60 1023.3
20260508212717 51 323 1.7 1.7 0.00 0.00 0.00 60 1023.1
20260508212213 50 333 2.6 3.5 0.00 0.00 0.00 60 1022.8
20260508211709 50 17 0.0 1.7 0.00 0.00 0.00 61 1023.2
20260508211205 50 46 2.6 5.2 0.00 0.00 0.00 61 1023.1
20260508210702 50 26 1.7 5.2 0.00 0.00 0.00 61 1023.5
20260508210200 51 26 1.7 3.5 0.00 0.00 0.00 60 1023.3
20260508205656 49 241 2.6 2.6 0.00 0.00 0.00 62 1023.2
20260508205153 50 98 4.3 7.0 0.00 0.00 0.00 61 1023.2
20260508204649 50 358 1.7 6.1 0.00 0.00 0.00 62 1023.5
20260508204145 50 204 1.7 7.0 0.00 0.00 0.00 61 1023.3
20260508203641 50 174 5.2 7.8 0.00 0.00 0.00 62 1023.3
20260508203138 53 50 3.5 7.0 0.00 0.00 0.00 60 1023.5
20260508202634 51 311 1.7 7.0 0.00 0.00 0.00 59 1023.5
20260508202131 52 267 0.9 7.0 0.00 0.00 0.00 59 1023.6
20260508201628 49 268 0.0 5.2 0.00 0.00 0.00 62 1023.5
20260508201125 50 104 2.6 6.1 0.00 0.00 0.00 61 1023.5
20260508200621 52 15 1.7 7.8 0.00 0.00 0.00 60 1023.6
20260508200117 53 57 4.3 7.0 0.00 0.00 0.00 57 1023.3
20260508195614 50 151 3.5 5.2 0.00 0.00 0.00 59 1023.6
20260508195111 49 116 2.6 6.1 0.00 0.00 0.00 62 1023.6
20260508194607 50 169 3.5 6.1 0.00 0.00 0.00 62 1023.9
20260508194104 51 1 1.7 7.8 0.00 0.00 0.00 61 1023.7
20260508193601 51 309 0.9 6.1 0.00 0.00 0.00 58 1023.6
20260508193058 49 277 2.6 3.5 0.00 0.00 0.00 59 1023.9
20260508192554 50 359 5.2 7.8 0.00 0.00 0.00 61 1023.6
20260508192052 49 88 5.2 7.0 0.00 0.00 0.00 62 1023.7
20260508191548 48 18 1.7 7.0 0.00 0.00 0.00 64 1023.5
20260508191045 49 325 4.3 6.1 0.00 0.00 0.00 64 1023.7
20260508190542 49 298 1.7 6.1 0.00 0.00 0.00 62 1023.9
20260508190038 50 95 2.6 7.0 0.00 0.00 0.00 57 1023.7
20260508185536 49 333 2.6 8.7 0.00 0.00 0.00 61 1023.9
20260508185033 48 25 1.7 6.1 0.00 0.00 0.00 62 1023.9
20260508184531 50 353 2.6 7.0 0.00 0.00 0.00 61 1023.9
20260508184027 50 357 1.7 5.2 0.00 0.00 0.00 62 1023.5
20260508183524 48 170 5.2 7.8 0.00 0.00 0.00 64 1023.9
20260508183020 49 316 4.3 5.2 0.00 0.00 0.00 60 1024.0
20260508182517 47 265 0.9 5.2 0.00 0.00 0.00 66 1023.9
20260508182013 49 357 3.5 8.7 0.00 0.00 0.00 65 1023.6
20260508181508 50 250 1.7 5.2 0.00 0.00 0.00 63 1023.7
20260508181007 48 317 0.9 6.1 0.00 0.00 0.00 67 1024.0
20260508180503 49 16 3.5 7.8 0.00 0.00 0.00 65 1023.7
20260508175959 49 316 4.3 8.7 0.00 0.00 0.00 63 1023.7
20260508175455 48 338 1.7 3.5 0.00 0.00 0.00 65 1023.9
20260508174953 48 0 1.7 7.8 0.00 0.00 0.00 66 1024.0
20260508174451 48 23 5.2 8.7 0.00 0.00 0.00 65 1023.9
20260508173947 50 313 5.2 7.8 0.00 0.00 0.00 61 1023.9
20260508173445 51 322 4.3 7.0 0.00 0.00 0.00 58 1023.7
20260508172940 52 335 7.0 8.7 0.00 0.00 0.00 39 1023.5
20260508172438 53 343 7.0 8.7 0.00 0.00 0.00 44 1023.9
20260508171934 53 4 8.7 13.0 0.00 0.00 0.00 38 1023.9
20260508171430 51 319 5.2 7.8 0.00 0.00 0.00 39 1024.0
20260508170927 51 344 9.6 13.0 0.00 0.00 0.00 39 1024.1
20260508170425 52 314 5.2 11.3 0.00 0.00 0.00 38 1023.9
20260508165921 52 340 6.1 9.6 0.00 0.00 0.00 40 1023.7
20260508165419 52 328 5.2 7.8 0.00 0.00 0.00 40 1023.6
20260508164915 50 353 5.2 14.8 0.00 0.00 0.00 42 1023.9
20260508164412 51 357 8.7 12.2 0.00 0.00 0.00 42 1023.7
20260508163909 50 321 7.8 11.3 0.00 0.00 0.00 41 1023.9
20260508163407 50 9 7.0 9.6 0.00 0.00 0.00 43 1024.1
20260508162902 50 15 6.1 8.7 0.00 0.00 0.00 45 1023.7
20260508162400 49 7 5.2 7.8 0.00 0.00 0.00 44 1024.0
20260508161857 49 312 7.8 11.3 0.00 0.00 0.00 47 1023.9
20260508161354 49 261 2.6 7.0 0.00 0.00 0.00 50 1023.9
20260508160851 48 319 2.6 6.1 0.00 0.00 0.00 49 1023.9
20260508160350 48 306 5.2 7.0 0.00 0.00 0.00 50 1023.9
20260508155845 47 333 7.8 11.3 0.00 0.00 0.00 51 1023.7
20260508155343 47 336 3.5 8.7 0.00 0.00 0.00 56 1023.7
20260508154840 47 315 3.5 6.1 0.00 0.00 0.00 55 1023.7
20260508154337 46 308 7.8 8.7 0.00 0.00 0.00 53 1023.9
20260508153833 45 301 3.5 7.8 0.00 0.00 0.00 55 1023.9
20260508153331 45 39 1.7 5.2 0.00 0.00 0.00 63 1024.0
20260508152827 44 314 2.6 6.1 0.00 0.00 0.00 62 1024.0
20260508152324 44 280 5.2 7.8 0.00 0.00 0.00 62 1023.9
20260508151820 45 315 0.9 5.2 0.00 0.00 0.00 59 1023.9
20260508151317 46 277 1.7 7.0 0.00 0.00 0.00 57 1023.9
20260508150813 47 336 4.3 6.1 0.00 0.00 0.00 57 1024.1
20260508150310 44 327 0.9 2.6 0.00 0.00 0.00 56 1024.0
20260508145806 44 306 0.9 6.1 0.00 0.00 0.00 63 1023.9
20260508145306 44 294 1.7 3.5 0.00 0.00 0.00 63 1024.0
20260508144759 44 262 0.9 3.5 0.00 0.00 0.00 66 1024.1
20260508144257 44 338 2.6 2.6 0.00 0.00 0.00 68 1023.9
20260508143755 44 264 0.9 7.0 0.00 0.00 0.00 62 1023.9
20260508143252 43 277 2.6 6.1 0.00 0.00 0.00 65 1023.7
20260508142748 43 309 3.5 6.1 0.00 0.00 0.00 62 1023.9
20260508142245 42 324 2.6 6.1 0.00 0.00 0.00 65 1024.0
20260508141741 41 275 0.0 1.7 0.00 0.00 0.00 78 1024.1
20260508141239 44 332 3.5 6.1 0.00 0.00 0.00 58 1024.1
20260508140736 42 277 3.5 5.2 0.00 0.00 0.00 62 1024.1
20260508140233 40 268 0.0 1.7 0.00 0.00 0.00 71 1024.0
20260508135729 37 248 0.9 2.6 0.00 0.00 0.00 92 1024.3
20260508135225 36 196 0.9 1.7 0.00 0.00 0.00 98 1024.0
20260508134721 34 248 0.0 0.9 0.00 0.00 0.00 98 1024.1
20260508134218 33 241 1.7 1.7 0.00 0.00 0.00 98 1024.1
20260508133715 33 265 0.0 1.7 0.00 0.00 0.00 98 1024.1
20260508133213 33 291 0.0 0.0 0.00 0.00 0.00 98 1024.1
20260508132710 33 211 0.9 0.9 0.00 0.00 0.00 97 1024.1
20260508132207 33 255 0.0 0.0 0.00 0.00 0.00 97 1024.1
20260508131657 33 257 0.0 0.0 0.00 0.00 0.00 97 1024.3
20260508131154 33 266 0.0 1.7 0.00 0.00 0.00 97 1024.1
20260508130651 33 279 0.9 1.7 0.00 0.00 0.00 96 1024.1
20260508130148 32 281 0.9 0.9 0.00 0.00 0.00 95 1024.3
20260508125643 32 80 2.6 6.1 0.00 0.00 0.00 94 1024.4
20260508125140 33 34 3.5 5.2 0.00 0.00 0.00 88 1023.9
20260508124638 37 340 1.7 2.6 0.00 0.00 0.00 73 1023.7
20260508124135 37 253 0.0 0.0 0.00 0.00 0.00 71 1023.6
20260508123634 38 248 0.0 1.7 0.00 0.00 0.00 68 1023.5
20260508123131 36 139 1.7 1.7 0.00 0.00 0.00 71 1023.2
20260508122627 35 255 0.0 3.5 0.00 0.00 0.00 74 1023.2
20260508122124 34 228 0.0 0.9 0.00 0.00 0.00 75 1023.1
20260508121622 34 220 1.7 1.7 0.00 0.00 0.00 74 1023.1
20260508121120 34 211 1.7 1.7 0.00 0.00 0.00 73 1023.1
20260508120617 34 224 1.7 1.7 0.00 0.00 0.00 73 1022.9
20260508120116 34 214 2.6 2.6 0.00 0.00 0.00 71 1022.8
20260508115613 34 234 1.7 2.6 0.00 0.00 0.00 74 1022.8
20260508115109 35 232 0.9 1.7 0.00 0.00 0.00 72 1022.7
20260508114607 35 213 1.7 1.7 0.00 0.00 0.00 74 1022.5
20260508114102 35 250 0.0 1.7 0.00 0.00 0.00 74 1022.5
20260508113600 35 233 0.9 2.6 0.00 0.00 0.00 71 1022.7
20260508113058 37 224 0.9 1.7 0.00 0.00 0.00 69 1022.7
20260508112554 38 231 0.9 2.6 0.00 0.00 0.00 68 1022.7
20260508112051 38 155 3.5 6.1 0.00 0.00 0.00 67 1022.5
20260508111548 37 233 2.6 2.6 0.00 0.00 0.00 69 1022.5
20260508111045 39 285 1.7 5.2 0.00 0.00 0.00 65 1022.4
20260508110543 40 299 4.3 8.7 0.00 0.00 0.00 59 1022.4
20260508110038 39 249 0.0 3.5 0.00 0.00 0.00 64 1022.1
20260508105533 39 262 3.5 12.2 0.00 0.00 0.00 62 1022.3
20260508105031 37 247 0.9 1.7 0.00 0.00 0.00 67 1022.1
20260508104529 35 180 3.5 7.0 0.00 0.00 0.00 71 1022.3
20260508104025 35 207 3.5 5.2 0.00 0.00 0.00 80 1022.0
20260508103522 33 227 3.5 3.5 0.00 0.00 0.00 81 1022.3
20260508103020 34 256 0.0 2.6 0.00 0.00 0.00 79 1022.5
20260508102517 33 205 1.7 5.2 0.00 0.00 0.00 79 1022.3
20260508102015 33 248 0.0 2.6 0.00 0.00 0.00 80 1022.1
20260508101512 33 230 0.9 1.7 0.00 0.00 0.00 80 1022.0
20260508101008 33 210 1.7 1.7 0.00 0.00 0.00 80 1022.0
20260508100507 33 234 0.9 2.6 0.00 0.00 0.00 80 1021.8
20260508100003 33 216 0.0 0.0 0.00 0.00 0.00 79 1021.9
20260508095500 33 242 1.7 2.6 0.00 0.00 0.00 78 1022.0
20260508094957 33 230 0.0 0.0 0.00 0.00 0.00 79 1022.0
20260508094454 33 248 0.0 3.5 0.00 0.00 0.00 78 1021.9
20260508093950 33 220 1.7 2.6 0.00 0.00 0.00 81 1021.9
20260508093447 34 250 0.9 5.2 0.00 0.00 0.00 78 1022.0
20260508092945 34 224 0.9 2.6 0.00 0.00 0.00 78 1022.0
20260508092443 34 208 2.6 3.5 0.00 0.00 0.00 78 1022.1
20260508091942 34 282 0.9 2.6 0.00 0.00 0.00 77 1022.0
20260508091438 35 197 3.5 3.5 0.00 0.00 0.00 76 1022.1
20260508090935 36 252 0.0 1.7 0.00 0.00 0.00 69 1022.1
20260508090434 37 223 1.7 1.7 0.00 0.00 0.00 70 1022.3
20260508085929 38 230 1.7 2.6 0.00 0.00 0.00 66 1022.3
20260508085426 39 262 0.0 0.9 0.00 0.00 0.00 66 1022.3
20260508084923 37 129 1.7 2.6 0.00 0.00 0.00 65 1022.3
20260508084419 39 265 0.0 3.5 0.00 0.00 0.00 63 1022.3
20260508083918 40 238 0.9 2.6 0.00 0.00 0.00 60 1022.4
20260508083415 42 258 0.0 7.8 0.00 0.00 0.00 53 1022.4
20260508082914 38 11 5.2 9.6 0.00 0.00 0.00 57 1022.3
20260508082412 37 226 1.7 1.7 0.00 0.00 0.00 69 1023.1
20260508081910 37 265 0.0 1.7 0.00 0.00 0.00 67 1022.7
20260508081406 37 224 1.7 2.6 0.00 0.00 0.00 68 1022.7
20260508080902 38 230 0.9 1.7 0.00 0.00 0.00 67 1022.7
20260508080401 39 212 1.7 2.6 0.00 0.00 0.00 63 1022.7
20260508075857 41 246 4.3 6.1 0.00 0.00 0.00 59 1022.9
20260508075354 40 231 2.6 3.5 0.00 0.00 0.00 58 1022.9
20260508074852 40 267 1.7 2.6 0.00 0.00 0.00 61 1022.9
20260508074348 40 262 0.0 0.9 0.00 0.00 0.00 60 1023.1
20260508073845 41 243 1.7 5.2 0.00 0.00 0.00 63 1023.2
20260508073344 41 229 2.6 3.5 0.00 0.00 0.00 60 1022.9
20260508072840 41 270 3.5 3.5 0.00 0.00 0.00 60 1023.5
20260508072336 42 232 1.7 6.1 0.00 0.00 0.00 60 1023.3
20260508071834 42 292 3.5 8.7 0.00 0.00 0.00 56 1023.1
20260508071332 41 271 0.9 2.6 0.00 0.00 0.00 60 1023.2
20260508070829 42 353 6.1 7.8 0.00 0.00 0.00 57 1023.3
20260508070327 41 315 2.6 2.6 0.00 0.00 0.00 61 1023.3
20260508065824 41 287 7.0 9.6 0.00 0.00 0.00 60 1023.5
20260508065322 40 252 3.5 9.6 0.00 0.00 0.00 62 1023.7
20260508064820 40 252 2.6 7.0 0.00 0.00 0.00 68 1023.6
20260508064318 39 198 7.8 12.2 0.00 0.00 0.00 70 1023.6
20260508063815 37 219 3.5 5.2 0.00 0.00 0.00 75 1023.7
20260508063313 36 225 3.5 5.2 0.00 0.00 0.00 82 1023.9
20260508062810 35 244 2.6 3.5 0.00 0.00 0.00 81 1024.0
20260508062308 35 238 0.9 1.7 0.00 0.00 0.00 81 1023.6
20260508061804 36 179 2.6 2.6 0.00 0.00 0.00 79 1023.5
20260508061301 35 202 1.7 3.5 0.00 0.00 0.00 78 1023.5
20260508060758 36 232 0.9 2.6 0.00 0.00 0.00 77 1023.7
20260508060256 36 240 0.0 0.0 0.00 0.00 0.00 76 1023.3
20260508055751 37 241 0.9 1.7 0.00 0.09 0.09 75 1023.6
20260508055248 38 321 2.6 3.5 0.00 0.09 0.09 72 1023.6
20260508054744 39 260 0.0 0.9 0.00 0.09 0.09 64 1023.3
20260508054243 39 247 0.9 0.9 0.00 0.09 0.09 66 1023.6
20260508053739 37 209 2.6 3.5 0.00 0.09 0.09 70 1023.6
20260508053236 38 218 1.7 3.5 0.00 0.09 0.09 70 1023.6
20260508052734 38 230 0.0 2.6 0.00 0.09 0.09 69 1023.6
20260508052226 39 226 0.0 0.0 0.00 0.09 0.09 68 1023.5
20260508051722 41 21 1.7 3.5 0.00 0.09 0.09 64 1023.6
20260508051217 41 260 0.0 0.0 0.00 0.09 0.09 57 1023.3
20260508050714 42 258 0.0 0.0 0.00 0.09 0.09 55 1023.3
20260508050212 43 236 0.0 0.0 0.00 0.09 0.09 55 1023.2
20260508045712 44 261 0.0 5.2 0.00 0.09 0.09 51 1023.2
20260508045210 44 244 0.9 5.2 0.00 0.09 0.09 52 1023.3
20260508044707 43 237 1.7 3.5 0.00 0.09 0.09 53 1023.3
20260508044203 44 253 0.0 1.7 0.00 0.09 0.09 51 1023.2
20260508043659 44 252 0.9 7.8 0.00 0.09 0.09 48 1023.5
20260508043158 44 270 0.9 3.5 0.00 0.09 0.09 49 1023.3
20260508042654 45 301 3.5 7.0 0.00 0.09 0.09 49 1023.2
20260508042151 44 250 3.5 7.0 0.00 0.09 0.09 49 1023.2
20260508041647 44 239 4.3 6.1 0.00 0.09 0.09 49 1023.2
20260508041145 45 281 1.7 8.7 0.00 0.09 0.09 49 1023.2
20260508040641 44 255 2.6 8.7 0.00 0.09 0.09 49 1022.8
20260508040138 44 202 6.1 11.3 0.00 0.09 0.09 49 1022.7
20260508035636 45 278 3.5 12.2 0.00 0.09 0.09 49 1022.7
20260508035133 45 240 6.1 13.9 0.00 0.09 0.09 49 1022.9
20260508034630 45 230 11.3 15.6 0.00 0.09 0.09 48 1023.1
20260508034127 44 266 2.6 7.0 0.00 0.09 0.09 49 1023.1
20260508033624 44 233 4.3 16.5 0.00 0.09 0.09 49 1022.8
20260508033122 44 245 5.2 13.9 0.00 0.09 0.09 50 1022.8
20260508032618 44 219 9.6 13.9 0.00 0.09 0.09 51 1022.9
20260508032116 42 197 7.8 13.0 0.00 0.09 0.09 56 1022.8
20260508031613 41 216 5.2 7.0 0.00 0.09 0.09 60 1022.8
20260508031109 41 209 1.7 6.1 0.00 0.09 0.09 61 1022.7
20260508030605 42 226 3.5 6.1 0.00 0.09 0.09 61 1022.7
20260508030104 41 231 2.6 7.8 0.00 0.09 0.09 60 1022.9
20260508025559 42 223 1.7 3.5 0.00 0.09 0.09 60 1022.8
20260508025057 42 228 3.5 6.1 0.00 0.09 0.09 62 1022.7
20260508024552 42 220 4.3 7.0 0.00 0.09 0.09 59 1022.7
20260508024050 42 223 6.1 11.3 0.00 0.09 0.09 59 1022.3
20260508023546 43 229 6.1 8.7 0.00 0.09 0.09 59 1022.5
20260508023044 42 212 3.5 7.8 0.00 0.09 0.09 58 1022.7
20260508022539 41 257 3.5 11.3 0.00 0.09 0.09 64 1022.8
20260508022037 41 238 0.9 5.2 0.00 0.09 0.09 67 1022.7
20260508021533 41 237 5.2 7.0 0.00 0.09 0.09 67 1022.9
20260508021029 41 317 3.5 9.6 0.00 0.09 0.09 68 1023.3
20260508020526 41 274 1.7 3.5 0.00 0.09 0.09 67 1023.5
20260508020024 42 310 1.7 7.0 0.00 0.09 0.09 65 1023.3
20260508015521 42 255 0.9 6.1 0.00 0.09 0.09 65 1023.2
20260508015018 42 289 5.2 9.6 0.00 0.09 0.09 63 1023.1
20260508014515 42 230 1.7 5.2 0.00 0.09 0.09 63 1022.8
20260508014011 42 236 1.7 7.0 0.00 0.09 0.09 63 1022.7
20260508013507 43 262 3.5 5.2 0.00 0.09 0.09 61 1022.8
20260508013005 43 234 5.2 7.0 0.00 0.09 0.09 60 1022.7
20260508012501 43 235 3.5 6.1 0.00 0.09 0.09 60 1022.7
20260508011958 44 236 7.0 15.6 0.00 0.09 0.09 58 1022.7